Location: Unspecified
(0.0000°N, 0.0000°E)
Time: 10:48:33
(UTC+00:00)

ARIANE 2 DEB - Visible Passes

Search period start: 15 December 2025 00:00
Search period end: 25 December 2025 00:00
Orbit: 910 x 35590 km, 6.7° (Epoch: 29 August)

Date Brightness Start Highest point End Pass type
(mag) Time Alt. Az. Time Alt. Az. Time Alt. Az.
15 Dec ? 04:59:01 14° WNW 05:05:13 49° N 05:09:57 10° ENE visible
15 Dec ? 16:28:14 10° W 18:14:46 49° W 02:22:31 10° ENE visible
16 Dec ? 13:29:30 10° W 17:01:29 82° S 23:13:06 87° S visible
17 Dec ? 10:40:18 10° W 18:52:01 70° ESE 20:34:09 26° E visible
19 Dec ? 05:04:00 14° WNW 05:09:36 47° N 05:14:26 10° ENE visible
19 Dec ? 16:34:41 10° W 18:19:36 45° W 02:26:42 10° ENE visible
20 Dec ? 13:34:10 10° W 16:22:42 82° S 23:17:33 85° WSW visible
21 Dec ? 10:44:32 10° W 18:57:57 74° ESE 20:38:34 29° E visible
23 Dec ? 05:08:46 14° WNW 05:13:56 46° N 05:18:56 10° ENE visible
23 Dec ? 16:41:27 10° W 18:24:15 41° W 02:30:49 10° ENE visible
24 Dec ? 13:38:52 10° W 15:07:50 83° SSW 23:21:55 80° W visible
